Showing default

CHINASAT 6A, 37150

Orbit data source: Space-Track

CHINASAT 6A, 37150 is a payload satellite owned by China Satcom (CN) in GEO that was launched on Sat, 04 Sep 2010 UTC via a CHANG ZHENG 3B launch vehicle from the Xichang Space Center, China (XSC). Payload-class satellites include a variety of spacecraft equipped with specific instruments for various scientific and technological missions. These include communications satellites like Starlink; space stations such as the ISS; scientific satellites like the Hubble; Earth observation satellites from companies like Planet Labs, Umbra, and HawkEye 360; GPS; miniature CubeSats for education and research; and military/defense satellites.

Loading next visibility...
Identifier
37150, 2010-042A
Orbit
GEO
Country
Flag of CNCN / PRC
Related business
Manufacturer
CAST
Mission
Non-operational Commercial Communications
Bus & Motor
DFH-4, FY
Mass
5,100 kg wet, ~2,500 kg dry
Launch date (UTC)
2010-09-04 (16 years ago)
Launch vehicle
CHANG ZHENG 3B
Launch site
Xichang Space Center, China (XSC)
Object type
Payload
Rocket body
Debris
Shape & HBR
Box + 2 Pan, 7.8 m
Radar Cross Section
19.960 m², Large (>1 m²)

Expand to show TLE details & history
Last TLE update: 19 hours ago

TLE from 19 hours ago
0 CHINASAT 6A
1 37150U 10042A   26235.60269235 -.00000098  00000-0  00000-0 0  9992
2 37150   4.3934  76.3577 0000677 155.2283 226.4606  0.99695335 58550
Epoch: 2026-08-23T14:27Z
TLE epoch observation values (Epoch: 2026-08-23T14:27:52.619Z)
Latitude
1.61538°
Longitude
-90.88347°
Altitude
35,950.241 km
Speed
3.069 km/s
True Right ascension
06h 31m 55s
True Declination
1° 36' 50"
Sunlit
Object was in daylight at epoch
Visualization orbit readout
Latitude
Unknown
Longitude
Unknown
Altitude
Unknown
Speed
Unknown
Apparent Right ascension
Unknown
Apparent Declination
Unknown
Sunlit
N/A
Visualization observer readout
Local Sidereal Time
00:46:58
Azimuth
Unknown
Elevation
Unknown
Doppler factor
Unknown
Orbital elements
Apogee altitude
35,952.896 km
Perigee altitude
35,947.165 km
Semi-major axis
42,328.167 km
Eccentricity
0.00007
Inclination
4.3934°
RAAN
76.3577°
Arg. of periapsis
155.2283°
True anomaly
226.45498°
Mean anomaly
226.4606°
Eccentric anomaly
226.45779°
Mean motion
0.24923 °/min
Orbital period
1,444.45 mins
BSTAR
0
Loading maneuver chart data...
Computing Atmospheric mass density...
Loading historical data...
Loading historical data...
Loading historical data...
Loading historical data...
Loading historical data...
Loading historical data...
Loading historical data...

Documentation

Showing up to 5 results
|